Theta_e
359 357 357 356 357 358 360 359 356 358 361 358 357 356 353 353 351 348 343 346 345 345 348 347 367 364 363 362 357 358 359 356 351 352 357 357 368 355 353 355 354 353 352 352 351 354 355 355 355 355 355 355 356 357 356 356 356 356 354 354 354 351 348 347 347 348 349 350 350 350 352 353 353 355
363 360 356 356 356 360 356 353 355 356 362 359 356 354 354 357 352 350 348 347 350 349 352 350 356 365 363 358 355 356 356 359 355 352 356 353 359 349 352 355 353 351 350 349 350 352 353 354 353 351 352 352 353 353 353 352 353 352 352 351 350 347 345 344 346 347 348 348 350 350 352 353 353 353
360 360 358 358 356 359 358 359 357 357 359 359 358 356 358 357 359 357 356 350 353 353 350 349 353 352 358 356 355 351 351 356 353 353 359 359 355 349 359 353 352 351 347 347 347 349 350 350 349 349 350 350 351 351 349 349 348 348 347 347 346 343 342 342 345 346 346 347 348 348 350 351 352 351
360 359 357 359 359 359 359 359 357 357 358 358 358 359 357 360 361 360 359 353 353 356 353 355 354 354 355 357 354 353 350 354 353 358 355 370 355 362 360 353 352 349 347 346 345 345 347 346 346 348 349 348 348 349 347 344 343 343 344 343 341 338 339 341 344 344 344 345 346 346 347 348 349 349
359 361 362 363 364 364 360 358 358 356 357 358 357 358 359 358 360 359 357 355 351 358 360 357 355 353 353 350 353 351 349 350 354 354 356 359 353 351 353 364 350 348 347 345 344 344 344 343 343 345 347 345 345 345 342 339 337 339 339 337 335 334 337 338 340 341 342 342 344 344 345 346 346 346
360 361 363 363 361 363 360 358 355 355 354 353 353 354 354 357 359 361 358 356 353 353 358 355 358 356 358 351 355 353 350 350 356 352 354 354 352 350 358 367 357 348 347 344 343 343 343 341 342 344 343 343 342 340 336 333 332 334 334 331 331 332 333 334 336 339 339 340 340 342 342 343 343 343
363 362 361 361 363 360 358 358 357 356 354 353 353 351 356 353 353 358 360 358 354 353 354 358 355 356 355 352 352 353 352 357 354 355 355 352 350 352 355 355 361 346 347 346 344 343 342 342 341 341 340 340 338 336 332 328 327 328 327 326 328 329 329 328 332 334 333 335 337 338 340 341 341 341
361 360 360 360 360 360 359 359 359 357 357 354 355 354 357 358 357 357 360 361 360 358 352 357 354 353 352 351 353 351 353 351 353 353 355 355 356 357 357 356 355 351 346 348 346 344 342 341 340 339 337 336 332 330 329 327 326 325 324 324 325 326 326 326 328 331 329 331 331 334 337 338 339 338
362 359 359 359 361 362 358 360 359 357 355 354 354 354 357 358 359 359 360 360 362 363 358 356 361 359 355 354 355 355 352 352 353 358 359 357 359 361 360 358 353 351 344 347 345 342 342 341 340 339 336 334 332 330 329 327 325 323 322 323 324 324 325 325 325 327 327 327 328 327 331 334 337 337
363 360 360 361 359 360 358 359 360 360 361 357 356 356 356 357 359 361 361 362 362 362 361 360 356 362 353 353 356 357 357 355 354 355 356 358 358 362 361 359 355 357 356 358 354 341 341 339 336 339 335 332 331 330 328 327 326 323 321 320 321 322 322 323 324 325 325 324 325 324 326 330 332 334
358 358 358 360 361 359 360 358 357 358 357 356 355 357 361 358 358 356 358 360 359 361 360 356 358 357 360 360 356 360 355 359 360 356 355 354 359 362 361 361 361 357 354 353 349 351 350 346 347 333 334 332 331 330 329 328 327 325 322 320 322 322 321 321 323 323 323 324 323 322 320 322 327 329
357 355 358 357 356 358 357 362 361 360 360 360 356 362 359 360 353 353 353 357 358 357 355 352 355 355 357 364 361 364 354 355 362 355 355 353 350 351 362 362 358 360 361 359 357 348 346 346 340 332 334 333 331 329 330 330 329 327 323 322 324 324 322 321 322 322 322 322 321 321 320 319 321 325
358 360 360 357 360 359 358 359 361 362 365 364 362 364 361 357 353 354 356 357 352 348 352 353 354 351 353 359 360 355 356 357 360 357 353 352 353 353 354 360 363 362 358 357 354 354 356 350 350 348 345 343 337 337 335 334 332 326 324 323 324 324 322 321 321 321 321 320 321 321 321 320 319 321
359 360 363 364 364 363 363 363 365 368 367 368 364 365 359 360 359 357 352 354 357 354 350 346 348 345 351 353 357 356 360 359 361 356 355 351 351 350 352 357 359 360 360 356 357 356 356 352 351 351 351 343 347 338 334 331 329 326 324 323 323 323 323 321 321 320 320 319 320 319 319 321 320 318
358 358 360 364 364 362 360 358 359 364 364 364 364 363 363 364 358 353 357 354 357 352 347 349 348 345 346 351 358 357 355 354 355 355 352 351 350 349 350 349 357 364 361 361 358 356 361 360 352 351 348 344 338 333 330 329 326 325 324 323 323 322 322 322 323 321 320 319 319 319 318 320 320 318
362 362 362 361 363 358 357 356 359 363 365 365 361 361 365 362 359 359 359 357 355 355 348 348 350 350 349 350 353 352 355 358 363 357 354 350 349 346 348 352 351 364 366 359 357 353 359 357 350 348 346 341 337 331 326 325 325 324 323 323 323 323 322 322 322 322 321 320 319 320 319 320 322 320
362 364 363 358 358 358 358 358 359 362 362 362 362 365 363 360 357 345 344 349 357 358 352 350 350 350 350 350 354 358 358 363 357 356 354 352 352 350 350 355 351 362 366 359 354 350 354 355 352 347 343 336 331 328 327 326 324 323 323 322 323 322 322 321 321 321 320 319 318 317 317 317 319 320
358 363 355 357 358 356 352 354 356 359 358 358 358 360 362 363 363 360 355 349 347 352 355 354 350 353 356 354 358 363 365 363 359 354 353 350 351 353 352 355 358 361 358 354 351 347 348 352 349 346 345 339 338 335 327 323 324 324 322 322 321 321 321 321 321 320 320 319 318 317 315 315 315 318
353 356 356 356 357 353 351 352 350 353 355 357 357 356 357 359 360 362 361 361 362 361 360 358 357 357 359 362 362 363 369 366 362 356 353 356 356 355 356 353 355 357 362 358 351 343 345 349 346 344 345 338 336 331 322 322 324 323 322 322 322 320 320 321 321 319 319 319 318 317 315 314 314 315
357 354 352 350 352 354 353 340 337 342 350 355 355 352 352 356 356 359 362 352 356 365 365 362 359 359 360 344 356 361 365 367 363 358 355 356 355 352 348 347 349 353 358 356 349 343 343 345 340 343 340 339 337 333 329 324 325 324 323 323 321 320 318 319 319 319 319 319 318 317 315 313 312 314
351 348 349 349 351 353 345 329 325 329 343 351 352 353 352 353 353 354 359 348 342 342 337 337 338 336 333 331 331 331 332 350 351 353 349 347 349 354 345 343 344 345 351 347 344 337 335 340 343 339 337 338 340 337 331 328 325 323 323 322 321 320 320 319 318 319 319 318 317 317 316 314 313 317
355 351 351 352 351 346 336 323 322 325 340 347 351 351 350 348 350 351 353 354 362 334 332 331 333 334 335 336 336 337 336 337 347 352 346 349 350 346 346 341 341 346 345 340 339 337 333 339 341 338 340 340 334 332 335 334 328 322 320 319 320 320 320 319 318 319 319 318 317 318 315 313 315 332
351 352 350 344 339 335 328 317 319 322 333 338 343 346 347 347 348 352 354 352 350 354 353 355 350 349 344 350 351 350 345 346 350 354 352 352 348 345 344 342 342 338 336 332 337 334 335 335 336 337 334 331 331 340 341 338 333 332 335 329 331 320 321 321 319 316 315 318 318 318 315 313 316 330
341 341 343 342 323 320 318 315 314 315 317 332 335 339 342 343 344 339 338 344 348 349 351 352 353 355 358 357 357 352 350 350 351 349 349 348 347 342 343 342 342 337 332 330 335 337 331 335 333 339 334 329 325 333 338 341 342 342 339 336 333 324 322 323 319 315 315 316 314 316 316 315 314 329
332 330 330 331 328 317 316 313 310 310 313 320 331 338 340 335 330 330 335 339 342 343 346 349 352 354 352 354 353 353 349 347 347 346 339 338 336 334 332 333 333 330 324 328 332 336 331 332 333 335 333 332 330 328 333 336 337 337 339 336 333 333 335 334 327 331 316 312 313 312 313 317 315 323
328 332 332 333 331 316 315 311 308 307 310 315 329 337 314 315 320 330 333 336 339 341 343 345 347 349 350 350 349 346 343 341 340 335 334 333 334 337 335 332 330 329 328 334 332 332 331 334 328 328 328 327 327 326 326 328 328 334 339 337 333 333 334 334 330 328 333 329 333 328 324 316 318 315
328 331 333 333 331 317 309 306 307 308 310 319 329 310 312 316 318 327 336 340 340 341 342 343 341 340 340 338 336 336 336 339 341 340 340 337 335 336 337 336 332 329 328 330 332 331 331 330 328 325 323 325 323 324 326 326 329 335 332 332 334 332 333 334 330 328 328 328 328 319 315 313 313 317
329 330 332 333 316 308 303 304 308 311 316 329 314 311 314 318 323 331 340 339 340 340 340 338 337 335 337 338 336 335 335 336 338 338 338 336 335 333 330 330 329 329 329 325 327 329 330 329 327 328 327 325 322 321 322 325 326 326 327 332 330 329 330 331 331 331 329 330 327 326 327 327 331 329
331 326 316 312 310 310 309 309 311 314 316 311 311 313 317 333 339 340 339 336 338 338 336 335 334 334 335 335 334 334 333 333 335 336 334 333 332 330 330 330 332 331 325 325 327 329 329 328 326 327 328 326 322 322 321 322 323 322 325 325 325 328 327 328 329 326 327 327 325 323 326 326 327 329
323 318 315 313 313 315 319 333 341 341 340 326 324 325 330 340 338 338 339 337 337 335 334 332 332 332 333 332 332 335 337 337 335 336 334 333 330 329 329 330 330 327 325 326 325 326 327 327 327 327 325 327 324 322 323 322 323 322 324 324 325 326 328 327 327 327 327 325 323 324 327 329 328 328
331 334 336 334 327 326 327 329 333 334 334 335 336 338 341 336 336 337 340 337 336 335 333 332 333 332 333 335 336 335 333 330 329 329 330 326 326 327 327 327 324 324 327 327 327 328 327 327 328 326 323 323 324 325 324 322 320 322 323 325 323 318 321 324 327 328 326 324 323 325 329 328 327 331
328 333 338 335 340 345 339 338 337 336 338 337 334 333 334 336 336 336 337 337 336 335 334 333 333 333 332 329 329 328 327 325 327 329 328 327 327 327 327 325 323 323 327 327 325 330 328 327 326 326 325 324 322 323 324 322 321 322 322 319 318 319 322 322 322 325 325 323 323 324 326 326 326 329
332 336 331 330 329 330 329 330 329 329 329 331 331 330 330 332 332 332 331 330 330 331 331 330 330 329 329 327 327 325 324 325 325 327 328 328 326 327 325 321 321 320 321 322 325 326 327 328 327 326 327 327 326 325 322 319 322 321 317 316 316 317 320 321 322 323 326 323 322 322 325 326 328 329
331 329 328 328 327 327 327 327 328 327 326 327 328 327 325 326 327 328 328 328 329 329 329 329 328 327 327 326 324 323 321 322 322 324 324 323 324 324 320 319 320 320 322 320 320 323 324 325 325 325 326 327 327 328 327 322 320 319 318 317 317 317 318 320 322 322 322 320 321 321 320 321 326 327
330 328 326 326 326 325 325 325 325 326 324 323 324 324 324 323 324 324 325 325 326 326 326 325 325 326 325 324 324 323 324 323 324 325 326 327 325 323 320 318 317 319 318 318 318 321 320 321 321 319 321 322 323 327 323 324 321 319 318 317 318 317 317 319 319 319 320 323 322 320 318 321 323 324
325 325 325 324 324 324 323 324 326 325 324 324 324 324 323 322 323 323 323 324 324 323 323 321 321 321 321 321 322 322 323 323 321 321 321 320 320 319 319 319 319 318 318 318 319 320 319 318 318 316 315 313 312 313 320 319 322 317 315 315 316 316 317 318 319 320 320 320 321 318 317 318 319 322
324 324 324 322 323 323 323 323 323 325 323 323 323 323 322 322 322 324 325 326 324 323 322 322 320 321 321 320 320 319 319 318 318 319 319 319 319 319 318 318 319 319 318 319 320 318 320 318 318 316 313 311 309 307 312 319 314 314 324 314 315 316 317 317 317 317 317 317 318 318 317 317 317 319
323 323 321 321 321 322 323 322 322 322 323 323 323 324 322 322 323 324 325 324 322 322 322 322 321 321 320 320 320 319 319 319 318 318 317 317 316 317 316 315 315 316 316 316 317 317 317 316 315 315 313 309 307 306 308 314 315 313 314 317 315 315 316 316 312 312 315 315 315 316 316 315 316 319
322 321 321 320 321 322 321 321 321 321 322 321 321 320 322 322 321 321 322 321 322 320 319 319 319 319 319 318 316 317 317 317 316 317 316 316 316 315 314 315 313 312 311 311 313 315 316 314 314 314 311 308 306 305 307 306 307 312 314 310 316 315 314 312 311 311 311 312 313 314 316 320 317 316
320 320 320 320 320 319 319 320 319 319 319 319 319 318 318 318 318 317 316 316 318 318 318 317 317 315 316 315 315 315 316 315 314 313 314 314 312 312 311 310 309 309 310 310 311 312 312 313 313 311 309 309 309 310 310 311 312 314 314 314 309 315 318 313 312 310 310 311 313 310 310 314 313 317
318 317 317 317 317 317 316 316 316 316 316 317 318 317 318 318 316 313 314 314 316 315 314 315 315 314 314 313 313 311 311 311 312 312 312 312 310 310 308 307 307 308 307 307 308 308 309 311 313 314 313 313 314 314 310 308 308 311 314 316 307 308 309 312 315 313 311 314 313 310 308 309 308 309
318 317 316 316 315 315 314 314 314 313 313 313 314 314 315 316 316 312 314 314 314 314 312 312 312 311 310 310 309 309 307 307 308 308 308 308 307 307 307 307 306 306 306 305 305 306 309 311 312 312 312 311 310 307 305 306 306 308 312 312 316 310 308 309 309 311 320 316 311 307 308 308 309 306
317 316 316 315 315 315 314 313 313 312 312 312 312 314 313 313 313 312 312 312 312 311 311 310 310 310 309 309 309 308 307 306 306 305 305 305 305 305 305 305 306 306 306 306 307 308 310 311 311 310 310 309 309 308 306 307 308 309 309 309 311 312 315 311 308 308 309 309 308 310 312 309 305 302
315 315 315 315 315 316 314 314 313 315 316 315 314 313 312 312 311 311 311 310 309 309 309 308 309 308 308 308 307 307 307 306 305 304 304 305 304 304 303 304 304 305 305 306 306 307 308 308 309 309 307 307 308 307 307 307 307 308 308 308 310 310 310 312 314 311 309 310 309 307 307 308 309 310
315 315 315 315 314 314 313 313 312 311 310 310 310 311 311 311 311 310 310 310 309 308 307 307 306 306 306 306 305 304 305 305 305 305 306 305 305 305 305 305 304 305 305 305 305 305 307 308 308 309 308 308 308 307 307 307 307 308 308 308 308 309 310 310 309 309 310 313 310 308 307 309 310 309
Wind_Speed
7 7 8 7 6 6 6 5 6 6 4 4 4 5 4 4 6 6 6 5 5 5 7 0 4 4 4 4 4 5 5 2 0 3 4 3 6 9 10 7 7 4 4 2 0 2 3 4 5 6 7 8 9 10 10 11 11 12 13 13 14 14 14 14 13 12 10 9 6 6 5 6 7 7
6 6 8 9 7 6 6 7 7 6 4 5 6 6 7 5 6 6 7 7 5 5 5 2 2 3 4 6 4 5 8 8 5 2 4 6 3 12 11 9 8 6 3 3 1 2 3 4 5 5 6 8 8 9 10 10 11 12 12 13 14 14 14 14 13 12 11 10 8 7 6 6 6 6
8 9 9 7 7 7 7 7 7 6 5 6 5 6 6 6 5 5 6 8 5 6 5 4 6 4 4 7 5 4 4 9 4 3 3 5 6 5 9 12 10 7 5 5 2 2 3 3 3 4 6 7 7 8 9 10 11 12 13 14 15 15 14 14 13 13 12 11 10 9 8 8 7 7
8 7 9 8 7 7 7 7 7 7 7 6 6 5 6 5 6 6 6 8 8 7 7 6 7 8 6 5 3 4 6 6 3 2 5 4 7 8 5 14 12 8 8 7 5 5 5 2 2 3 4 5 7 7 8 10 11 11 13 14 14 14 14 14 14 14 14 13 12 12 11 11 10 10
8 7 7 7 7 7 8 7 8 7 7 8 7 6 6 6 6 6 7 8 9 7 7 7 7 6 6 6 4 5 7 7 5 5 4 4 6 7 3 9 10 10 9 8 7 6 5 4 3 2 3 4 5 7 8 9 9 11 12 12 12 12 13 14 14 14 14 14 14 13 13 12 12 12
7 7 7 8 9 8 9 10 10 9 8 8 8 7 7 5 7 7 6 7 9 8 7 7 7 7 5 7 6 7 7 7 5 7 4 5 7 7 4 8 7 13 10 10 9 7 7 6 5 4 3 4 5 6 7 8 9 10 11 11 10 10 11 13 13 13 14 14 14 14 14 14 13 13
8 8 9 9 9 8 9 9 10 10 10 8 6 6 5 9 9 6 7 7 9 9 8 7 7 6 6 8 6 7 7 6 7 7 7 6 6 6 4 4 7 12 12 12 11 10 9 8 7 5 4 4 4 6 7 8 8 9 9 9 11 10 10 10 11 12 12 12 13 13 12 13 13 13
10 9 9 9 9 9 8 8 8 8 7 8 8 8 7 8 9 9 9 10 8 8 9 7 8 7 7 7 8 7 8 9 6 6 6 6 8 7 6 6 1 11 13 13 11 11 10 10 9 8 6 5 5 6 8 8 9 9 10 10 10 10 10 10 11 11 11 11 12 12 13 13 13 13
6 6 11 10 9 8 10 9 8 9 10 9 8 8 8 8 8 8 8 8 8 8 9 8 6 7 8 8 8 8 8 8 8 6 6 6 6 5 7 5 1 15 15 13 13 11 11 11 11 10 8 7 7 8 9 9 9 9 10 10 11 11 10 10 10 11 10 11 12 12 12 13 13 12
8 10 10 10 10 10 9 10 8 8 8 10 9 9 8 8 8 7 7 8 8 9 9 8 8 6 8 7 7 9 8 8 7 7 8 7 6 6 6 5 4 5 8 6 7 7 8 11 12 11 10 8 8 9 10 9 9 10 10 11 11 11 11 11 11 11 11 12 12 11 12 13 13 13
9 9 10 11 9 11 8 9 9 6 9 7 10 10 7 8 9 9 7 8 9 8 6 8 9 7 4 2 5 5 9 9 6 8 9 8 9 7 6 5 5 5 3 4 12 11 11 12 9 11 10 8 9 10 11 11 10 10 10 10 11 11 11 11 11 10 10 11 12 12 12 12 13 13
5 7 12 13 11 1 5 4 2 3 6 8 6 4 6 7 12 12 10 8 6 6 9 9 8 7 6 3 4 3 2 7 5 3 4 5 7 13 8 5 6 4 4 5 3 7 7 10 10 11 9 10 11 12 13 12 11 9 9 10 10 10 11 11 10 10 10 10 11 11 11 11 11 11
7 8 7 8 7 4 11 7 9 7 7 6 4 2 1 2 2 5 7 4 4 9 13 11 8 8 8 5 2 4 5 2 3 3 4 4 6 10 11 7 5 4 5 5 5 1 4 6 9 7 7 7 10 8 9 11 12 10 9 9 9 9 10 10 10 10 10 10 10 10 11 11 11 11
10 9 6 6 6 9 8 9 11 8 8 7 7 5 3 3 5 5 5 6 7 5 5 10 12 12 9 7 5 5 3 5 5 2 2 3 8 11 13 7 5 4 5 4 4 5 4 3 3 7 9 10 8 6 6 5 7 7 8 8 8 8 9 9 9 10 10 10 9 9 10 10 10 10
9 9 8 6 4 4 5 8 17 13 8 8 8 8 7 3 2 6 4 7 5 4 7 5 7 11 14 11 8 7 5 3 2 2 2 3 7 11 11 6 4 3 3 2 4 4 3 3 3 3 4 6 7 7 6 9 11 8 6 6 7 8 8 8 9 9 10 9 9 8 8 8 9 9
7 7 5 4 4 4 8 9 10 8 6 4 7 9 6 2 1 4 5 6 6 5 5 6 7 7 7 10 9 12 8 5 2 1 2 2 4 8 12 7 5 0 1 3 4 5 2 3 3 5 2 8 6 8 10 12 12 8 5 5 6 6 7 7 7 8 8 9 9 8 7 7 7 8
6 4 2 3 2 1 8 10 9 6 7 7 7 3 3 4 7 9 9 11 9 5 8 10 11 7 7 10 11 9 6 2 4 4 3 3 5 9 12 8 5 3 3 3 4 5 3 4 4 8 7 7 8 8 9 12 12 10 6 4 4 4 5 6 6 7 7 8 9 9 8 6 5 5
7 6 4 3 3 1 5 7 7 6 6 7 7 6 7 7 6 8 9 10 13 12 9 8 10 10 8 10 10 9 6 4 4 3 3 5 8 8 9 9 7 4 5 5 5 5 4 3 4 5 2 10 7 7 9 12 12 10 8 6 4 4 4 4 5 6 7 8 8 8 9 7 5 3
10 7 4 4 4 4 5 2 6 6 6 6 5 6 7 8 9 7 7 8 8 8 9 11 12 11 10 11 11 10 5 4 4 3 5 6 8 8 10 9 8 5 2 4 3 5 3 4 6 5 2 5 8 7 7 11 12 11 10 8 6 5 3 2 3 4 6 7 9 9 9 8 5 5
9 9 9 9 11 6 5 6 6 7 7 6 6 6 9 11 11 9 8 5 5 7 6 6 8 8 6 4 7 5 3 3 1 2 5 8 6 5 6 7 6 3 5 7 6 5 3 4 4 4 3 2 8 7 7 8 12 12 12 9 7 6 4 2 0 1 3 5 7 9 10 11 7 3
5 5 5 5 6 9 7 10 10 13 11 7 8 9 9 9 11 12 8 9 13 12 10 10 11 11 9 5 2 3 1 1 1 1 3 6 5 2 2 4 5 4 4 5 2 3 4 4 2 3 1 4 3 7 7 7 10 12 13 11 9 7 7 5 3 1 1 2 4 7 10 12 15 7
2 3 7 11 6 7 7 9 10 11 10 8 9 10 9 10 11 11 10 9 3 9 11 12 12 12 10 6 3 2 3 1 4 4 4 3 5 6 4 5 6 3 3 3 5 3 5 3 2 2 3 3 7 5 8 7 8 9 9 11 10 9 8 8 6 4 4 2 3 4 7 10 13 10
4 3 8 11 9 7 6 10 11 12 11 8 9 9 10 9 10 8 8 8 11 7 8 8 6 7 7 6 6 5 3 4 2 2 2 2 2 2 4 7 7 6 3 5 5 3 3 3 2 2 3 4 4 3 9 9 9 8 7 6 6 10 10 9 9 8 7 5 1 1 6 8 10 7
6 7 4 7 9 9 8 8 9 8 8 7 8 9 8 9 8 9 10 10 9 9 8 11 11 10 8 8 8 8 8 6 3 4 2 3 3 2 2 5 7 5 3 2 6 3 4 3 5 2 3 4 4 3 2 3 2 2 2 1 4 10 13 10 9 11 8 8 4 1 1 6 7 6
6 6 6 6 8 8 7 6 6 5 6 6 6 7 7 7 9 11 10 11 14 10 10 9 10 7 8 6 6 6 5 5 6 5 6 7 8 7 7 5 8 5 6 5 8 4 4 5 6 5 4 4 5 5 4 3 1 2 1 1 3 4 4 3 3 3 9 9 6 6 4 2 4 4
5 5 6 6 4 6 7 7 5 5 5 6 6 5 7 11 11 9 8 8 8 8 8 8 8 7 7 6 4 7 8 8 7 7 7 8 8 7 7 8 7 6 5 6 10 7 6 4 6 5 4 4 5 5 5 4 5 2 2 2 4 4 3 3 2 3 2 1 2 4 4 8 7 7
5 5 5 6 9 11 10 7 6 5 6 7 1 4 8 10 11 10 6 7 7 6 7 6 7 7 7 8 9 7 8 7 6 6 6 6 8 8 7 8 6 6 5 5 7 7 5 4 4 5 5 5 5 5 4 4 1 2 3 3 2 3 3 2 2 3 3 3 4 5 11 10 10 9
5 6 6 6 10 12 11 10 6 6 6 3 6 10 10 9 8 7 6 6 7 7 5 5 5 6 7 7 8 6 5 6 6 7 8 8 8 7 7 8 8 6 6 7 6 6 5 4 4 4 5 5 5 5 5 5 5 5 5 3 4 4 2 2 3 3 2 3 5 5 6 4 4 5
5 7 11 15 14 12 10 10 6 6 9 10 9 9 10 11 4 4 6 5 6 6 6 6 6 7 7 6 6 6 6 6 7 6 6 5 5 5 5 4 3 2 4 4 4 4 5 4 5 5 5 5 5 5 5 6 6 6 6 6 5 3 5 4 3 4 3 3 5 6 5 4 4 3
13 15 16 16 15 12 8 6 3 4 5 9 9 8 9 5 7 8 6 5 6 6 5 5 5 6 4 4 3 4 5 6 4 3 2 2 2 3 3 2 2 3 4 4 5 5 5 5 5 6 6 5 5 5 5 6 6 6 7 7 5 5 3 3 3 2 4 5 6 6 5 4 5 3
6 8 8 8 9 10 3 2 6 8 3 3 6 5 5 5 8 7 6 7 5 6 6 5 4 3 4 5 5 6 6 7 6 6 5 4 5 5 4 2 2 2 2 2 2 3 3 3 3 5 5 5 5 4 5 5 6 6 7 5 4 5 6 6 3 4 5 5 6 6 4 4 4 3
7 7 8 5 6 4 2 2 3 3 2 4 7 9 9 7 7 9 11 9 7 6 5 5 5 6 6 6 6 6 6 7 6 5 6 5 5 6 5 4 5 4 2 1 3 3 2 3 3 3 4 5 6 5 5 4 5 6 5 5 5 5 5 5 5 5 6 6 6 5 4 5 4 2
6 3 5 6 6 7 8 7 8 9 9 9 9 11 12 8 8 7 6 6 6 7 6 5 4 4 4 5 5 6 6 6 6 6 6 6 5 5 5 4 4 4 4 4 5 5 4 4 4 5 6 5 5 6 5 5 4 3 3 4 4 5 5 5 6 5 6 6 6 6 5 5 4 1
4 4 5 6 6 6 7 8 9 9 8 8 8 8 10 10 10 9 9 8 7 6 6 5 5 5 4 5 4 4 4 4 4 5 4 3 3 3 3 3 2 2 2 3 3 2 3 3 4 5 6 6 6 7 6 6 5 3 3 4 4 4 4 6 5 6 6 6 6 6 6 5 5 1
2 5 5 6 6 6 7 7 7 7 8 8 7 7 8 8 9 9 8 9 8 7 7 6 6 6 6 6 7 6 5 4 3 3 2 2 2 3 3 2 1 2 3 3 3 2 3 4 4 5 5 5 4 6 7 4 3 3 4 4 4 4 5 5 6 5 6 6 4 5 5 5 3 3
6 6 7 7 7 7 7 8 7 8 7 6 7 7 7 8 8 8 8 7 6 6 7 7 7 6 6 6 5 4 4 4 3 3 3 4 4 4 4 4 4 5 5 4 2 3 4 5 4 4 5 4 5 1 6 2 4 4 4 5 4 5 5 5 5 6 6 4 4 4 5 5 4 4
6 6 6 6 6 7 7 7 6 6 7 6 6 6 6 6 7 7 7 7 6 5 4 4 5 5 4 4 3 3 4 4 4 3 3 3 4 6 6 5 5 5 5 5 4 5 4 5 4 4 3 3 1 4 2 5 2 4 3 3 4 4 4 5 5 6 6 6 6 5 5 5 5 3
6 6 6 7 7 7 7 7 8 7 7 6 6 6 5 5 5 6 5 6 7 7 6 5 5 4 4 4 4 4 4 3 3 4 4 4 4 4 4 5 6 6 7 7 7 6 5 5 6 3 4 3 3 2 1 1 1 3 7 3 2 3 3 4 5 5 6 6 6 7 7 7 6 6
6 6 6 6 5 5 5 5 6 6 6 6 6 7 6 5 5 5 5 5 5 5 5 4 5 5 5 5 6 6 6 6 6 5 5 4 5 6 6 6 6 6 7 8 7 6 4 4 4 4 4 4 5 5 6 6 6 7 5 10 3 3 2 3 4 4 5 5 6 6 6 6 7 11
5 6 6 6 6 6 6 6 6 6 5 6 6 6 6 6 6 7 7 7 6 5 4 4 5 5 5 5 5 5 4 5 5 6 6 6 5 5 5 6 6 6 7 7 7 5 5 4 5 4 5 4 5 5 6 6 7 7 8 9 11 5 3 2 2 4 3 4 4 5 6 6 5 5
5 5 6 6 6 6 6 6 6 6 6 6 6 6 5 4 5 6 4 4 5 6 6 6 6 7 6 7 7 7 7 6 5 5 5 5 5 5 6 7 7 6 6 7 6 5 4 4 6 7 6 5 5 6 7 6 6 4 4 3 8 7 4 2 2 2 2 2 3 4 5 4 5 6
5 5 6 6 6 7 6 7 7 7 7 7 6 7 6 6 3 2 3 5 6 5 5 5 5 5 6 7 7 6 7 7 7 7 7 7 7 7 6 5 6 6 6 6 6 5 6 6 7 6 5 5 5 5 5 6 6 5 4 5 3 8 6 6 7 6 4 1 2 3 4 5 5 6
5 4 5 5 4 4 5 6 6 7 8 8 8 7 7 7 7 6 6 5 6 7 7 8 7 8 7 7 8 8 7 7 7 8 9 8 7 7 7 6 6 6 6 6 6 6 5 4 4 5 5 5 5 5 6 6 6 5 6 4 5 3 4 11 13 10 9 4 3 1 1 2 3 4
3 4 3 3 5 7 7 6 8 7 4 6 4 2 6 6 6 6 7 8 7 7 7 7 7 8 8 7 7 8 8 8 8 8 8 8 8 8 8 7 7 6 7 6 6 6 5 5 5 5 5 5 5 5 6 6 6 5 5 5 5 5 6 6 4 10 7 3 6 6 3 2 4 5
5 5 6 5 5 5 5 6 7 9 10 12 13 9 7 8 7 7 8 8 8 8 8 8 8 8 8 8 8 8 7 8 8 8 8 8 7 7 7 7 7 7 7 6 7 7 6 6 6 5 5 5 4 5 5 6 6 6 6 6 7 6 6 5 6 6 4 3 7 9 8 7 7 9
Wind_Direction
267 268 242 234 246 262 266 271 278 291 325 303 288 287 280 280 279 285 288 294 299 286 335 142 254 290 321 302 272 226 323 94 198 326 306 299 166 179 186 177 174 192 205 243 120 3 358 355 355 353 351 352 352 354 354 351 350 352 353 353 352 350 347 345 347 349 350 348 356 16 23 20 16 10
261 269 286 258 241 236 247 246 243 247 242 260 259 256 252 245 259 266 280 289 284 284 239 197 205 223 241 238 228 252 228 153 214 266 294 295 98 173 182 169 174 181 178 202 113 65 31 17 8 357 358 359 357 359 356 355 354 355 357 354 353 353 349 349 348 350 351 348 351 354 5 11 14 6
234 235 241 258 263 264 268 282 280 271 229 229 251 269 270 269 262 271 277 278 273 278 294 250 188 243 260 273 250 263 294 158 199 288 316 277 107 236 187 172 172 166 184 176 142 105 83 32 7 354 8 6 8 6 6 3 360 360 360 358 358 358 356 353 353 355 354 354 352 353 354 357 359 351
236 242 248 253 263 261 257 259 263 266 264 265 257 247 253 251 256 270 271 270 274 278 283 287 268 256 244 247 276 275 284 146 160 319 258 233 181 240 206 169 161 164 177 164 145 133 105 69 39 19 20 17 16 14 15 10 4 6 7 6 4 3 2 2 1 2 0 360 360 358 355 354 353 346
263 254 255 254 254 260 261 257 259 256 249 239 236 254 259 248 246 248 253 262 276 272 276 285 289 276 277 270 267 279 264 266 227 204 287 296 284 278 264 147 151 169 178 165 155 143 123 117 106 66 37 32 25 24 22 17 14 15 15 14 12 11 11 6 5 6 6 6 5 3 359 356 352 346
258 261 254 249 253 251 252 257 257 250 251 253 246 238 221 246 258 242 255 256 267 273 266 274 277 286 287 280 251 255 272 277 292 273 278 281 278 274 312 148 166 175 182 172 164 146 135 135 123 113 75 46 36 32 30 26 27 25 23 20 16 17 17 13 9 12 12 10 7 4 2 2 360 353
251 251 253 250 247 250 251 246 245 253 257 265 251 225 176 234 247 243 241 248 253 265 276 269 265 266 277 275 283 276 276 282 280 277 266 273 278 298 298 301 149 182 181 171 164 145 142 140 135 125 94 75 55 43 37 38 29 27 24 20 22 19 17 13 16 17 17 15 15 12 8 9 9 3
245 254 247 249 255 258 263 268 275 257 254 250 258 264 240 223 220 230 222 232 249 260 270 268 270 275 276 274 272 278 273 270 274 288 299 282 282 293 300 294 160 180 184 176 162 150 151 151 151 140 119 99 78 62 53 40 34 29 25 21 18 17 16 20 22 22 17 17 18 16 13 13 15 12
274 263 259 257 252 244 248 249 254 264 251 253 254 248 247 249 248 252 251 248 248 256 257 266 276 283 283 282 278 271 275 276 269 248 245 268 280 282 283 285 298 157 184 180 155 154 161 160 154 149 135 120 99 79 62 47 39 33 26 22 20 18 15 20 22 23 16 17 18 16 16 20 19 19
233 255 254 254 256 261 259 255 249 264 291 273 257 254 256 257 256 258 265 258 253 257 262 271 274 273 274 293 305 298 304 299 299 304 288 267 261 269 270 284 302 165 169 190 155 158 172 170 162 155 133 123 112 93 75 55 44 36 29 24 21 20 20 21 23 25 22 21 18 15 18 22 24 25
259 266 255 244 237 246 259 268 274 300 278 283 288 282 285 286 265 254 255 268 266 258 270 271 266 266 274 317 289 14 28 310 347 324 309 315 315 275 265 275 276 301 281 113 148 168 192 164 166 150 144 142 125 106 85 69 47 36 31 26 23 23 22 22 21 24 25 24 22 20 22 21 24 25
339 301 301 303 273 349 310 284 308 236 289 289 270 305 328 330 348 330 302 282 287 284 261 262 276 285 287 252 250 143 138 276 279 277 346 337 333 305 279 260 277 288 303 276 215 132 137 146 126 145 151 158 133 120 100 81 57 38 33 29 27 27 26 25 22 23 23 23 21 22 22 22 23 22
249 249 241 250 312 128 232 246 249 250 248 250 274 286 162 67 271 291 298 316 323 307 302 293 285 282 274 260 289 284 252 290 302 330 11 313 291 283 283 268 264 271 276 282 310 355 196 168 167 164 164 171 173 149 110 106 78 43 32 31 30 28 29 27 28 25 25 21 21 20 20 22 22 24
267 268 285 290 289 316 279 255 255 259 268 266 277 283 294 248 236 228 280 316 306 306 290 305 306 292 282 279 269 271 245 202 193 187 190 266 279 290 283 282 279 273 266 299 311 306 311 294 200 184 176 174 176 91 80 54 66 47 33 33 29 29 28 29 28 28 25 23 22 18 17 19 22 23
262 260 267 278 359 333 332 326 299 302 294 294 288 285 276 289 250 273 274 273 285 286 284 266 282 293 297 306 319 279 272 246 167 192 215 229 274 264 266 279 261 231 275 271 275 272 314 325 287 286 294 112 113 103 98 110 85 67 48 37 32 30 29 27 30 26 25 24 22 20 16 14 19 21
265 279 286 326 0 331 312 306 295 301 302 296 287 287 285 264 194 171 225 260 265 253 263 283 275 278 281 292 281 285 308 322 288 212 201 243 255 280 277 270 283 54 259 267 268 275 258 278 271 279 230 121 111 111 130 116 104 94 71 52 41 37 31 30 27 26 25 23 19 21 18 11 12 19
292 298 310 290 263 229 244 247 259 288 291 293 293 265 247 253 255 244 221 214 229 241 248 256 267 248 262 270 271 272 285 232 262 283 296 288 286 278 278 277 285 144 248 257 251 277 262 211 249 263 117 122 121 127 128 120 116 113 107 84 70 50 44 33 27 24 24 21 17 15 21 13 359 11
278 233 210 206 229 200 336 317 316 320 311 307 309 299 294 285 257 234 224 208 215 221 235 240 249 258 250 266 277 279 276 255 248 238 257 271 269 265 276 297 299 286 239 251 281 270 265 248 248 272 162 141 134 129 134 132 124 130 123 119 104 93 64 46 31 25 18 15 15 13 7 20 350 330
253 290 303 287 248 153 192 306 350 341 327 311 309 310 294 292 284 262 247 238 230 223 228 234 245 256 262 266 279 282 265 240 227 198 244 259 259 281 290 286 290 290 188 257 248 249 249 255 253 253 335 106 123 119 143 143 140 138 141 135 140 126 109 62 57 33 25 11 5 3 2 3 11 299
353 352 334 340 333 320 82 39 8 3 331 322 299 292 298 283 273 272 263 253 217 230 224 225 240 245 255 324 307 325 311 272 272 291 284 279 282 296 298 302 299 318 358 328 272 289 312 297 301 337 306 122 133 145 149 168 156 160 150 159 162 164 143 145 151 53 35 28 1 357 355 348 352 287
347 327 341 327 302 321 28 20 15 358 337 314 302 292 283 283 281 275 269 237 219 210 210 227 223 220 225 241 245 292 334 191 217 77 298 263 273 269 259 271 289 288 172 231 307 303 297 280 263 274 271 312 160 162 156 162 189 170 164 165 178 186 189 183 190 243 287 33 21 354 354 349 338 322
224 271 348 12 29 35 30 17 17 4 349 328 314 297 289 283 282 281 284 291 287 198 208 209 218 222 218 207 214 240 231 281 259 232 238 329 318 289 264 250 265 268 142 79 340 308 281 306 313 281 283 279 265 192 153 167 166 179 172 168 177 195 203 201 204 210 235 266 31 2 355 352 340 322
2 66 108 77 68 52 36 26 16 11 3 339 328 315 304 296 284 300 323 301 288 291 284 254 211 221 213 192 193 217 207 193 191 91 128 148 167 241 299 314 296 244 148 27 346 309 296 315 306 307 287 288 306 239 148 162 162 184 177 171 186 201 206 209 199 209 229 226 123 1 357 360 344 334
16 19 40 100 74 60 48 32 16 2 357 341 324 320 306 307 321 351 327 315 316 307 294 285 278 282 280 247 211 175 190 195 101 97 148 163 172 158 38 281 271 270 73 17 343 19 308 311 288 35 339 314 295 8 343 262 245 313 318 202 185 195 211 198 193 208 216 219 169 298 338 4 343 345
353 1 2 342 60 51 41 22 2 347 338 319 315 308 327 343 327 326 317 318 318 302 295 295 300 292 272 257 267 244 184 137 147 125 81 74 70 63 52 26 15 56 54 0 320 41 353 341 332 360 343 310 289 280 304 349 357 278 132 218 299 307 321 325 330 198 205 216 205 192 196 150 307 312
353 350 349 331 33 11 353 344 334 327 305 302 285 335 342 320 324 312 299 293 296 299 302 310 321 319 291 288 320 30 35 46 55 66 63 64 68 63 69 57 55 56 39 6 359 34 357 359 17 340 327 314 309 319 321 319 284 211 102 319 295 280 277 305 319 330 343 46 209 216 223 171 211 258
325 328 326 324 330 332 327 320 313 291 286 282 5 326 294 287 285 283 285 315 308 308 322 347 32 29 32 54 59 57 52 44 45 57 61 67 63 53 53 70 70 67 53 32 27 23 2 28 14 360 338 335 316 310 286 280 312 83 243 240 280 301 267 255 321 327 344 335 330 276 269 232 201 212
317 312 310 302 309 308 308 303 287 268 253 272 288 277 272 268 260 261 305 345 341 347 12 46 47 57 65 74 69 63 55 47 40 42 47 49 46 49 38 32 43 50 53 43 32 21 6 357 11 3 334 325 324 325 326 333 327 335 322 344 329 297 333 350 319 318 324 350 336 334 328 351 182 190
289 285 283 286 288 286 287 288 287 266 243 238 250 265 272 274 321 360 348 349 340 33 44 51 55 57 53 57 71 80 80 60 42 50 52 59 69 58 63 38 9 6 70 76 66 40 30 15 16 348 331 332 322 333 327 322 326 318 330 335 301 357 341 315 320 333 352 350 346 325 326 333 319 337
277 279 276 276 276 275 264 255 237 232 216 210 226 246 270 297 29 9 355 358 16 47 61 63 68 78 77 85 101 94 83 81 76 77 95 115 111 116 100 70 14 78 78 68 62 43 25 29 11 357 333 324 332 318 325 321 316 320 312 300 332 314 278 0 344 350 36 6 339 321 306 320 304 313
296 290 285 269 254 247 179 359 312 305 311 236 238 232 243 19 34 31 2 13 30 44 55 52 63 90 98 95 92 82 72 61 50 40 41 41 36 26 41 86 182 123 26 62 79 77 87 50 13 351 338 327 320 324 330 326 302 306 298 315 359 320 345 317 334 41 41 356 324 300 314 312 308 223
305 292 283 317 356 348 128 199 265 238 295 350 20 27 29 47 42 34 24 23 33 45 51 58 48 57 57 55 52 55 55 55 43 32 39 30 24 19 358 2 42 47 17 287 175 181 73 60 13 340 309 301 299 310 316 304 288 275 296 8 357 338 325 328 348 14 20 346 320 317 320 310 307 312
296 321 33 23 30 33 26 29 22 32 20 28 24 27 10 21 43 38 29 28 29 24 27 47 53 48 58 62 59 56 51 38 34 19 25 23 15 20 17 23 19 19 8 346 350 14 14 9 353 326 292 271 251 262 288 296 291 315 348 350 340 329 333 350 349 8 357 328 319 315 325 313 275 357
296 35 33 43 40 42 50 43 43 34 30 25 28 30 24 24 23 20 27 18 26 32 34 26 41 48 45 55 53 57 53 54 45 35 25 18 3 6 21 28 7 338 317 319 327 347 353 346 321 294 282 265 225 213 225 260 292 305 9 333 329 332 342 336 349 352 343 317 309 319 332 317 297 281
34 38 35 43 38 45 49 50 50 54 52 39 37 41 43 36 30 28 25 12 16 28 35 35 30 22 27 30 28 28 21 18 2 2 351 317 293 286 289 287 264 254 275 280 279 297 298 292 285 286 292 289 269 147 44 40 289 357 342 323 356 348 335 342 345 331 312 294 323 343 303 295 305 13
37 28 35 32 25 19 38 42 37 33 40 36 28 28 36 37 29 29 30 20 30 26 31 28 25 25 27 25 21 18 8 352 3 351 348 334 328 323 319 324 330 322 310 289 288 305 305 297 300 308 313 324 324 267 180 43 37 9 336 343 353 335 334 335 330 310 301 333 345 307 298 322 343 325
38 41 43 41 39 30 22 30 37 34 28 24 36 38 38 34 29 25 23 15 25 46 52 41 35 25 26 18 359 1 356 352 350 336 325 336 335 345 341 324 305 297 295 304 319 305 296 294 293 287 296 305 346 337 81 166 340 320 359 334 331 333 338 329 324 321 347 339 315 307 323 324 323 319
39 35 31 35 29 31 22 15 15 24 26 18 10 18 26 28 23 24 20 23 12 1 14 9 13 0 350 347 329 324 320 320 308 315 323 318 321 321 325 321 313 324 337 332 323 311 309 316 311 324 317 314 318 316 295 132 257 202 202 266 299 323 319 334 333 348 334 326 312 336 343 320 321 309
31 33 31 36 30 24 28 26 20 14 15 12 8 2 6 6 10 360 2 8 20 5 6 8 2 357 354 1 352 342 337 331 321 314 311 322 324 318 315 330 342 344 339 318 305 301 323 313 350 14 11 347 330 318 315 301 283 296 217 199 237 258 24 353 320 328 333 326 336 347 312 288 271 254
42 38 30 26 31 19 22 16 14 10 10 5 3 8 356 3 3 12 10 9 6 356 342 356 4 347 352 354 341 330 332 350 353 354 349 346 346 341 345 349 331 322 310 307 308 328 329 5 24 3 346 312 293 290 291 281 285 277 272 227 198 197 215 204 302 332 318 349 336 313 311 314 332 14
41 38 39 28 29 24 25 19 11 9 14 9 3 14 2 359 4 5 8 13 3 356 347 352 357 350 355 352 352 347 336 332 329 327 322 314 318 318 325 319 301 298 296 293 299 303 312 358 338 328 298 280 274 272 264 270 269 296 328 68 192 192 226 265 324 323 282 309 294 306 302 336 4 333
33 49 39 36 31 20 18 21 14 10 7 3 4 360 344 335 14 99 313 349 352 342 342 343 348 340 342 341 338 338 340 333 331 330 325 318 310 305 292 285 290 289 283 282 284 292 305 314 310 305 295 299 300 289 289 292 296 296 309 303 262 200 229 222 209 219 254 352 339 321 328 332 350 327
11 18 27 24 25 16 18 19 18 21 8 3 2 353 347 354 346 344 338 333 339 339 342 332 322 320 319 318 318 317 312 309 309 313 315 310 307 306 305 300 297 297 293 291 291 288 288 290 292 289 286 277 269 268 276 284 298 308 309 315 346 359 240 218 226 227 225 167 147 215 246 324 332 326
354 6 9 337 323 356 12 346 309 285 286 268 228 310 321 314 327 336 337 335 330 327 332 329 328 327 330 334 336 329 319 319 325 313 303 304 305 304 305 304 302 298 296 292 295 297 301 296 289 286 287 280 290 295 288 293 287 296 302 303 305 302 299 299 239 211 210 193 212 221 256 271 270 275
7 344 326 343 5 360 347 344 354 1 355 347 351 353 327 327 333 333 332 330 334 341 345 344 342 342 339 335 328 324 326 318 304 304 306 303 300 300 296 298 295 296 298 298 300 298 294 292 289 271 267 267 272 278 289 286 289 293 290 292 292 291 308 321 321 321 301 216 198 198 213 226 242 252